Temperature
21 21 21 21 18 17 19 20 20 21 21 21 21 20 19 18 18 18 17 17 18 18 18 18 18 18 18 17 17 17 17 18 18 18 18 18 18 18 18 18 18 18 18 18 17 17 18 18 18
21 21 21 20 17 18 19 20 20 21 21 21 21 20 19 18 18 17 17 17 17 18 18 18 18 18 18 17 17 17 17 17 18 18 17 17 17 18 18 18 18 18 17 17 17 17 17 17 17
21 21 21 17 18 18 20 20 20 22 22 22 20 19 19 18 17 17 17 17 17 17 17 17 17 17 17 17 17 17 17 17 17 17 17 17 17 17 17 17 17 17 17 17 17 17 17 17 17
21 21 20 18 19 19 20 20 21 22 22 21 20 19 18 18 18 18 17 17 17 17 17 17 17 17 17 17 17 17 17 17 17 17 17 17 17 17 17 17 17 17 17 17 17 17 17 17 17
21 21 18 18 19 20 20 21 22 21 21 20 19 18 18 18 18 18 17 17 18 17 17 17 17 17 17 17 17 17 17 17 17 17 17 17 17 17 17 17 17 17 17 17 17 17 17 17 17
21 18 18 18 19 20 20 22 21 20 20 20 19 18 17 18 18 17 17 17 17 17 17 17 17 17 17 17 17 17 17 17 17 17 17 17 17 17 17 17 17 17 17 17 17 17 16 16 16
20 17 18 19 19 20 21 22 21 20 20 20 19 18 17 17 18 17 17 17 17 17 17 17 17 17 17 17 17 17 17 17 17 17 17 17 17 17 17 17 17 17 17 16 16 16 16 16 16
22 17 19 19 19 20 21 22 21 21 20 20 20 18 17 18 17 17 17 17 17 17 17 17 17 17 17 17 16 16 16 16 16 16 16 16 16 16 16 16 16 16 16 16 16 16 16 16 16
22 18 18 19 20 20 21 21 21 21 21 20 20 19 19 18 17 17 17 17 17 17 17 17 17 17 17 16 16 16 16 16 16 16 16 16 16 16 16 16 16 16 16 16 16 16 16 16 16
20 18 20 20 20 20 21 21 21 21 20 19 19 19 18 18 18 18 17 17 17 17 17 17 17 17 16 16 16 16 16 16 16 16 16 16 16 16 16 16 16 16 16 16 16 16 16 16 16
20 19 20 21 21 21 21 21 21 20 19 19 19 18 18 18 18 18 17 17 17 17 17 17 17 16 16 16 16 16 16 16 16 16 16 16 16 16 16 16 16 16 16 16 16 16 16 16 16
20 21 21 21 22 21 21 21 21 20 20 20 20 19 18 18 18 18 18 17 17 17 17 17 16 16 16 16 16 16 16 16 16 16 16 16 16 16 16 16 16 16 16 16 16 15 15 15 15
20 21 22 22 22 22 21 21 20 20 20 20 19 19 18 18 18 18 18 18 17 17 17 17 16 16 16 16 16 16 16 16 16 16 15 15 16 16 16 16 15 16 16 16 15 15 15 15 15
21 21 21 22 22 21 21 20 20 20 20 19 19 18 18 18 18 18 18 18 17 17 17 17 17 16 16 16 16 16 16 16 16 16 16 15 16 16 15 15 15 15 15 15 15 15 15 15 15
22 21 21 21 21 21 21 20 19 20 20 19 18 18 18 18 18 18 18 18 18 17 17 17 17 16 16 16 16 16 16 16 15 15 15 15 15 15 15 15 15 15 15 15 15 15 15 15 15
21 20 19 20 21 21 20 19 19 20 19 19 18 18 18 18 18 18 18 18 18 17 17 17 16 16 16 16 16 16 15 15 15 15 15 15 15 15 15 15 15 15 15 15 15 15 15 15 15
19 19 19 20 21 21 20 19 19 20 19 19 18 18 18 18 18 18 18 18 18 18 17 17 17 16 16 16 16 16 15 15 15 15 15 15 15 15 15 15 15 15 15 15 15 14 14 15 15
19 19 19 20 20 20 19 19 18 19 19 19 18 19 18 18 18 18 18 18 18 18 17 17 17 16 16 16 16 15 15 15 15 15 15 15 15 15 15 15 15 14 14 14 14 14 14 14 14
20 20 19 20 21 20 19 19 18 19 19 18 18 18 18 18 18 18 18 18 18 18 17 17 16 16 16 16 15 15 15 15 15 15 15 15 15 15 15 14 14 14 14 14 14 14 14 14 14
20 19 19 20 21 21 19 19 19 18 19 19 18 18 18 18 18 18 18 18 18 18 17 17 16 16 16 16 15 15 15 15 15 15 14 14 14 14 14 14 14 14 14 14 14 14 14 14 14
20 19 19 19 20 20 19 18 18 18 19 19 19 18 18 18 18 18 18 18 17 17 17 17 16 16 16 16 15 15 15 15 15 14 14 14 14 14 14 14 14 14 14 14 13 13 13 13 13
19 20 20 20 19 17 19 17 18 17 17 18 18 18 18 18 18 18 18 17 17 17 17 17 16 16 16 15 15 15 15 15 14 14 14 14 14 14 14 14 13 13 13 13 13 13 13 13 13
20 21 20 20 19 18 18 17 17 17 17 17 17 18 18 18 18 18 18 17 17 17 17 16 16 16 16 15 15 15 15 14 14 14 13 13 13 13 13 13 13 13 13 13 13 13 13 13 13
21 20 19 17 16 17 17 17 17 16 17 18 17 18 18 18 18 18 18 17 17 17 16 16 16 16 15 15 15 15 15 14 14 14 13 13 13 13 13 13 13 13 13 13 13 12 12 12 12
19 17 16 16 15 16 17 17 17 18 18 18 18 18 18 18 18 18 18 17 17 17 16 16 16 16 15 15 15 15 14 14 14 14 14 13 13 13 13 13 13 12 12 12 12 12 12 12 12
19 17 16 16 16 16 17 17 17 18 19 19 19 19 18 18 18 18 18 18 17 17 16 16 16 16 15 15 15 14 14 14 14 14 13 13 13 13 13 12 12 12 12 12 12 12 12 12 12
19 17 17 16 17 16 16 17 18 18 18 18 18 18 18 18 18 18 18 18 17 17 16 16 16 16 15 15 15 14 14 14 14 13 13 13 13 13 12 12 12 12 12 12 12 12 12 12 12
20 18 15 16 16 16 16 17 17 17 17 17 17 17 17 18 17 18 18 17 17 17 17 16 16 16 15 15 15 14 14 14 13 13 13 13 13 12 12 12 12 12 12 11 11 11 11 11 11
19 18 16 15 15 15 15 16 18 17 17 17 17 17 18 18 17 17 17 17 17 17 16 16 16 15 15 15 14 14 14 13 13 13 13 13 12 12 12 12 12 12 11 11 11 11 11 11 11
19 18 16 16 15 15 14 15 18 17 17 17 17 17 18 18 18 17 17 17 17 16 16 16 15 15 15 14 14 14 14 13 13 13 13 12 12 12 12 12 12 11 11 11 11 11 11 11 11
Wind_Speed
3 2 3 4 5 5 2 1 2 4 4 4 8 10 8 6 4 5 3 7 9 6 7 9 9 10 11 11 11 11 12 12 12 12 12 12 12 12 12 12 12 12 13 12 12 11 11 11 11
2 2 4 5 5 3 1 1 3 4 6 7 8 8 8 6 5 7 4 7 9 8 8 9 10 11 11 11 11 12 12 12 12 12 12 12 12 12 12 12 12 12 12 12 11 11 10 11 11
1 1 3 4 3 4 3 2 5 4 5 5 5 6 5 5 5 4 5 9 9 7 8 9 11 11 11 11 11 12 12 11 12 12 12 12 12 11 11 11 11 11 11 11 11 10 10 10 10
3 4 4 4 3 2 4 4 5 5 5 6 6 6 4 3 4 6 9 10 9 7 7 10 11 11 11 11 11 12 12 12 12 11 11 11 11 11 10 10 10 10 10 10 10 10 10 10 10
4 4 5 3 1 1 3 4 4 6 4 5 7 6 4 3 9 11 10 9 9 6 7 9 11 11 11 11 11 12 12 11 11 11 11 11 11 11 10 9 9 9 9 9 9 9 9 9 9
4 4 4 2 1 1 1 3 6 8 6 6 7 6 3 3 8 9 10 8 8 7 6 8 10 11 11 11 11 11 11 12 11 11 11 11 10 10 9 9 8 8 8 8 8 8 8 9 9
4 4 3 3 2 1 1 2 6 7 6 4 6 6 4 3 6 9 9 8 7 7 6 6 8 9 10 10 10 10 10 10 10 11 11 10 10 9 8 7 7 7 7 7 7 7 7 7 8
5 4 2 1 3 1 1 2 5 7 5 5 5 8 6 6 7 9 8 7 7 6 5 5 6 7 7 8 9 9 9 9 9 9 9 9 8 8 8 6 6 5 6 6 6 6 6 6 7
4 4 1 3 4 2 1 4 3 4 6 4 3 5 7 10 9 9 7 5 5 6 4 4 4 5 5 6 7 8 8 8 7 7 7 6 5 5 5 6 5 5 5 4 4 4 5 6 7
4 3 3 3 5 4 3 5 4 4 6 4 6 7 10 11 10 9 8 7 6 5 5 4 4 4 4 5 6 5 5 5 5 5 5 5 4 4 4 5 5 5 5 5 5 6 6 5 5
3 4 2 2 4 4 4 3 3 6 3 5 9 11 11 10 9 9 8 7 7 6 6 5 5 4 4 3 5 3 4 3 3 4 4 4 3 3 3 3 3 4 5 4 5 6 5 5 4
3 2 3 3 4 4 4 4 3 3 5 8 12 14 11 11 9 9 8 7 6 6 6 5 5 4 3 4 4 3 2 2 2 2 3 4 2 1 1 1 1 2 3 3 3 3 3 3 4
2 2 2 4 5 4 5 4 4 2 5 9 12 12 11 10 8 6 7 7 6 6 5 6 6 5 4 3 3 3 2 2 2 2 3 4 3 2 1 1 1 2 3 3 2 2 3 2 3
3 3 2 3 4 3 4 3 4 4 7 10 11 10 10 10 9 7 6 6 6 6 6 5 6 5 5 4 3 3 3 3 4 4 4 5 4 3 2 2 2 2 2 2 3 3 3 2 2
2 4 2 0 2 2 4 1 3 7 9 10 10 10 9 8 8 8 9 8 7 6 6 6 6 6 5 5 4 4 4 5 4 4 5 6 5 4 3 3 2 2 3 4 4 4 3 3 3
3 3 0 3 3 3 5 3 5 7 9 9 9 9 9 8 8 8 9 8 8 7 6 6 7 6 5 4 4 3 4 5 4 5 5 6 7 7 5 3 2 3 4 4 3 3 3 3 3
2 1 3 3 3 3 4 4 5 6 9 9 8 8 8 8 7 7 9 9 9 8 7 6 6 7 6 5 4 4 4 4 4 5 5 6 7 7 6 4 3 4 4 3 3 3 2 2 2
3 2 2 3 3 3 4 6 6 7 9 9 8 8 8 8 9 8 8 9 8 7 7 7 7 6 6 4 4 3 4 3 4 4 5 6 6 7 6 4 4 5 4 4 3 3 3 2 1
4 2 2 4 4 3 5 6 7 8 8 8 8 8 8 8 7 7 7 8 8 7 7 7 7 6 5 4 3 3 2 2 2 2 4 6 6 6 6 4 3 4 4 3 3 2 3 2 2
2 1 2 4 2 2 3 5 6 8 10 11 11 10 10 7 5 6 7 8 8 8 7 7 7 7 6 5 4 3 3 2 1 2 3 5 6 5 5 4 3 3 3 4 4 3 2 2 2
1 3 4 4 3 2 1 4 4 3 5 6 8 9 9 10 10 8 8 8 8 8 8 8 7 7 6 6 4 4 3 3 2 2 1 2 4 4 5 5 4 3 3 2 2 2 3 1 2
3 4 3 2 1 3 1 3 6 4 3 5 7 8 8 8 8 8 8 8 9 9 8 8 8 7 6 7 6 6 4 3 2 2 1 1 2 3 4 4 4 3 2 2 1 2 2 2 0
5 3 2 2 2 2 1 2 6 2 4 7 8 8 8 9 10 9 9 9 9 8 8 8 7 7 6 7 7 7 5 3 2 2 2 1 1 2 3 4 3 2 2 2 1 2 2 2 2
2 3 5 5 3 2 5 5 5 5 8 6 7 8 8 9 9 9 9 7 7 7 7 7 8 7 7 7 7 7 7 5 5 3 3 2 1 0 1 3 3 2 2 2 2 2 2 2 2
4 5 3 4 3 5 4 3 6 7 7 8 9 9 9 9 9 9 8 8 8 8 8 8 8 7 7 7 7 6 7 7 7 5 5 3 2 1 2 2 2 2 2 2 2 2 1 2 2
3 7 6 4 4 5 3 3 5 4 3 5 7 8 8 8 8 9 10 10 10 10 9 9 9 7 7 7 7 6 6 5 4 5 5 5 4 4 4 3 2 2 2 2 2 2 1 1 1
4 4 7 5 2 2 4 4 4 3 4 4 6 7 7 8 8 8 8 9 9 11 11 11 10 8 8 7 6 6 6 5 5 5 5 4 4 4 4 4 4 3 3 2 3 2 1 1 1
5 6 5 4 2 3 4 4 4 3 3 4 5 6 6 6 6 7 7 7 8 9 9 9 10 10 8 8 7 6 6 6 6 5 5 5 5 4 4 4 4 3 3 3 3 2 1 1 1
1 2 4 4 5 5 3 6 4 7 7 8 7 7 6 7 6 6 6 7 7 6 7 7 8 7 7 8 7 6 5 5 5 6 6 6 5 5 5 5 5 4 4 3 3 2 2 2 2
5 5 6 4 4 5 4 7 5 4 5 6 6 6 5 5 5 6 6 5 5 5 6 7 7 7 7 7 6 6 5 5 5 5 6 6 6 5 6 6 5 5 5 5 5 4 3 3 3
Wind_Direction
316 358 79 59 55 56 64 311 140 89 66 64 76 84 88 72 95 132 160 141 131 125 123 117 110 105 99 96 93 92 92 92 92 91 90 92 92 93 95 97 97 97 95 94 90 85 81 80 80
354 29 58 59 83 83 15 228 104 101 133 120 83 80 78 70 79 106 115 131 127 123 122 119 113 107 102 99 98 95 94 94 92 90 90 92 92 94 97 99 99 98 96 94 91 87 83 81 77
15 63 76 69 98 144 161 185 132 106 107 98 82 61 75 96 102 116 140 130 116 113 117 119 114 108 103 101 100 96 96 94 94 92 92 95 94 94 95 98 97 97 96 94 92 89 86 83 78
76 52 58 74 97 177 159 178 145 112 77 66 95 69 62 75 118 127 133 123 114 108 111 118 114 110 104 102 101 98 97 96 95 93 95 97 98 98 97 96 96 95 97 97 94 90 87 84 80
68 76 67 65 90 139 154 160 128 101 95 84 94 90 66 38 109 121 126 122 120 117 114 118 115 111 105 102 100 101 98 98 96 94 94 96 99 100 102 103 102 98 95 93 93 90 87 86 82
61 73 86 98 121 98 111 138 103 96 103 103 97 102 100 116 119 128 130 128 126 124 116 118 117 114 110 107 104 102 100 97 95 94 94 96 96 97 101 102 102 103 100 95 90 85 84 84 81
107 100 128 149 133 93 147 129 114 115 116 122 119 106 123 144 139 133 131 127 121 118 113 109 117 115 114 112 110 105 104 101 98 97 93 92 92 92 97 106 105 106 104 96 85 78 88 88 85
132 103 89 131 142 164 205 114 115 114 115 117 111 132 159 180 146 125 124 121 121 120 120 116 116 118 118 117 115 112 108 104 100 100 97 92 89 87 89 94 103 109 104 96 87 78 87 85 84
101 81 137 182 158 170 135 93 81 93 99 85 90 139 155 151 133 124 118 112 125 130 133 129 123 127 132 128 120 117 112 108 103 100 98 89 79 81 86 88 85 79 78 82 87 81 76 76 74
92 131 208 186 158 152 128 111 124 93 82 76 76 93 124 135 134 139 143 146 145 149 151 146 146 147 150 141 124 119 113 110 103 101 99 96 89 84 88 80 80 70 58 55 60 59 61 61 54
131 162 164 116 134 127 115 102 111 120 120 158 146 143 141 140 146 153 157 156 157 159 154 156 158 158 155 135 130 123 114 113 104 103 109 110 91 78 77 68 65 61 51 44 43 45 51 56 57
123 177 144 136 126 109 115 110 88 121 185 166 152 150 147 151 158 164 162 158 152 149 158 160 161 153 154 141 135 131 125 122 126 136 125 120 108 85 91 93 69 63 62 52 45 49 53 57 65
113 155 124 129 115 124 118 119 119 137 145 138 139 143 150 158 166 165 159 156 148 148 155 157 156 151 140 126 126 125 140 134 136 135 126 125 126 111 106 99 83 57 63 64 65 63 59 50 64
171 139 111 134 128 137 130 139 123 168 141 137 145 154 161 166 170 158 154 157 157 153 155 153 153 153 136 132 128 122 124 118 106 99 102 108 115 110 100 83 66 53 60 74 82 77 68 54 64
114 85 32 198 154 173 126 74 183 173 148 146 159 166 167 174 171 170 173 167 165 160 156 154 154 150 143 139 133 119 119 110 98 92 91 94 103 109 110 94 70 57 72 79 70 62 60 60 56
80 84 178 258 184 187 133 216 221 174 154 163 172 173 175 181 182 182 175 167 164 157 153 157 154 147 144 135 119 107 105 99 92 94 86 83 94 100 97 84 73 76 83 74 73 62 56 47 47
51 145 210 260 214 179 165 213 220 181 167 178 182 181 180 185 191 187 177 169 167 163 155 151 142 142 141 130 112 105 100 94 94 93 86 80 84 92 93 83 74 81 75 68 75 64 71 59 35
200 192 208 224 244 178 195 221 215 192 178 186 187 184 180 186 196 185 175 168 164 160 154 148 141 140 133 118 101 90 85 79 82 86 88 89 88 92 91 83 71 76 70 58 62 65 49 55 31
176 168 233 246 229 188 213 226 223 202 188 189 192 189 184 191 192 172 167 162 156 152 152 151 147 149 135 122 119 116 116 93 79 82 92 92 94 96 92 81 75 72 76 74 67 64 53 31 37
163 180 283 288 270 192 232 247 231 202 201 194 188 187 185 180 169 169 162 159 159 159 159 154 154 152 149 147 148 147 141 129 117 77 81 90 98 101 102 98 95 83 79 67 60 73 74 20 39
213 189 220 249 317 3 31 307 279 243 202 195 191 187 182 178 177 174 165 165 158 161 165 163 161 157 154 146 127 107 81 66 59 51 59 74 101 107 108 113 106 98 94 93 81 96 111 102 7
238 221 205 226 50 281 145 275 276 238 210 204 200 189 186 180 175 174 168 166 171 174 166 158 163 164 160 149 145 142 140 149 179 177 174 133 107 113 119 119 113 109 106 110 104 89 101 118 85
215 214 199 224 190 296 266 209 282 228 213 220 206 192 187 181 173 174 175 176 175 172 167 164 165 166 158 157 158 154 151 163 160 153 154 159 131 116 123 125 123 120 119 138 115 89 91 109 135
166 47 30 42 74 292 238 189 266 226 209 208 203 190 181 175 175 177 176 168 164 161 165 166 166 170 166 161 162 165 165 163 153 159 172 183 178 180 135 131 132 136 142 165 151 127 111 105 106
83 83 29 355 358 256 251 188 248 242 215 193 185 184 181 169 168 169 167 167 171 167 171 172 170 173 173 167 170 176 175 171 172 176 181 175 179 202 216 166 155 158 170 170 143 128 119 116 119
175 143 160 201 231 279 313 231 261 266 200 160 159 165 167 164 166 172 176 177 183 179 176 175 176 177 177 175 179 181 177 176 183 182 180 186 195 201 198 187 175 168 166 158 148 146 156 128 142
161 185 177 155 229 270 288 297 320 41 88 119 136 145 161 169 170 176 180 181 185 184 185 183 179 178 180 182 178 178 180 178 184 188 186 191 201 199 188 184 180 174 166 171 161 149 177 149 163
174 166 107 133 181 261 291 270 239 219 189 162 155 162 172 170 173 175 177 184 193 193 189 185 183 183 180 181 182 183 187 189 188 186 191 195 199 196 184 187 189 188 181 177 165 154 202 167 205
203 151 134 141 164 173 253 270 229 204 198 185 185 177 172 175 178 181 183 186 190 184 180 181 184 180 180 184 184 180 186 189 185 191 199 198 197 192 193 194 191 188 188 188 176 187 191 190 221
195 188 158 166 217 182 198 263 274 209 193 173 174 174 176 177 174 177 179 176 177 173 174 180 183 182 186 186 184 184 187 188 188 196 202 201 201 201 200 195 194 196 196 194 192 203 204 202 212
Height
1498 1498 1498 1499 1502 1513 1516 1511 1504 1503 1503 1503 1502 1503 1507 1512 1515 1522 1520 1519 1520 1520 1520 1520 1520 1520 1519 1519 1519 1518 1518 1518 1518 1518 1518 1518 1517 1517 1517 1517 1518 1518 1518 1518 1519 1519 1520 1520 1520
1498 1498 1499 1500 1510 1522 1519 1508 1505 1502 1503 1503 1504 1507 1509 1513 1515 1517 1518 1520 1520 1520 1521 1521 1521 1520 1520 1520 1520 1519 1519 1519 1519 1519 1518 1518 1518 1518 1518 1518 1518 1519 1519 1519 1520 1520 1520 1521 1521
1498 1499 1500 1503 1512 1519 1515 1506 1503 1502 1503 1503 1507 1509 1512 1515 1517 1517 1518 1520 1521 1521 1521 1521 1521 1521 1521 1521 1521 1520 1520 1520 1520 1520 1520 1519 1519 1519 1519 1519 1519 1520 1520 1520 1520 1521 1521 1521 1521
1498 1500 1502 1508 1512 1508 1505 1504 1501 1502 1504 1505 1507 1512 1515 1517 1517 1518 1519 1521 1521 1522 1522 1522 1522 1522 1521 1521 1521 1521 1521 1521 1521 1521 1521 1521 1520 1520 1520 1520 1520 1520 1520 1521 1521 1521 1521 1522 1522
1498 1500 1507 1513 1511 1506 1503 1502 1501 1502 1505 1507 1508 1513 1517 1518 1518 1519 1520 1521 1522 1522 1523 1523 1523 1522 1522 1522 1522 1523 1522 1522 1522 1522 1522 1522 1522 1521 1521 1521 1521 1521 1521 1521 1522 1522 1522 1522 1523
1499 1501 1514 1518 1512 1505 1503 1502 1503 1504 1507 1509 1510 1514 1519 1520 1519 1520 1521 1522 1523 1523 1523 1523 1523 1523 1523 1523 1524 1523 1523 1523 1523 1523 1523 1523 1523 1522 1522 1522 1522 1522 1522 1522 1522 1523 1523 1523 1523
1500 1505 1513 1513 1512 1508 1504 1503 1503 1505 1508 1510 1511 1515 1519 1520 1521 1521 1522 1523 1524 1524 1524 1524 1524 1524 1524 1524 1525 1525 1524 1524 1524 1524 1524 1524 1524 1524 1523 1523 1524 1523 1523 1523 1523 1523 1523 1524 1524
1499 1504 1510 1512 1511 1509 1504 1503 1504 1506 1508 1510 1511 1514 1517 1520 1521 1522 1523 1524 1524 1525 1525 1525 1525 1525 1526 1526 1526 1526 1526 1526 1526 1525 1525 1525 1525 1525 1525 1525 1525 1525 1525 1525 1525 1525 1525 1525 1525
1499 1508 1513 1510 1509 1507 1504 1504 1506 1507 1508 1510 1511 1512 1515 1519 1521 1522 1523 1524 1525 1525 1526 1526 1526 1526 1527 1527 1527 1527 1527 1527 1527 1527 1527 1527 1526 1526 1526 1526 1526 1526 1526 1526 1526 1526 1526 1526 1526
1499 1509 1506 1502 1502 1504 1504 1504 1506 1508 1509 1511 1512 1514 1516 1518 1520 1521 1523 1524 1525 1525 1526 1527 1527 1527 1527 1528 1528 1528 1528 1528 1528 1528 1528 1528 1527 1527 1527 1527 1527 1527 1527 1527 1527 1527 1527 1527 1526
1499 1503 1501 1500 1500 1502 1504 1505 1506 1508 1511 1511 1511 1514 1516 1518 1520 1521 1522 1524 1525 1525 1526 1527 1527 1528 1528 1528 1529 1529 1529 1529 1529 1529 1529 1528 1528 1528 1528 1528 1528 1528 1528 1528 1528 1528 1528 1528 1527
1499 1499 1499 1501 1501 1502 1504 1505 1507 1508 1510 1510 1511 1512 1515 1517 1519 1520 1522 1523 1524 1525 1526 1527 1527 1528 1528 1529 1529 1529 1529 1529 1529 1529 1529 1529 1529 1529 1529 1529 1528 1528 1528 1529 1529 1529 1529 1529 1529
1499 1499 1499 1500 1501 1503 1504 1505 1507 1508 1509 1510 1512 1513 1515 1517 1519 1520 1522 1523 1524 1525 1526 1527 1528 1528 1529 1529 1529 1530 1530 1530 1530 1530 1530 1530 1530 1529 1529 1529 1529 1529 1529 1529 1529 1529 1529 1529 1529
1498 1499 1499 1501 1501 1503 1504 1506 1507 1509 1509 1510 1511 1513 1515 1516 1518 1519 1521 1522 1523 1524 1525 1526 1527 1528 1529 1529 1530 1530 1530 1531 1531 1531 1531 1531 1530 1530 1530 1530 1530 1530 1530 1530 1530 1530 1530 1530 1530
1498 1501 1502 1502 1502 1503 1505 1509 1508 1508 1509 1510 1511 1513 1514 1516 1517 1518 1520 1521 1522 1523 1524 1526 1527 1528 1529 1530 1530 1530 1531 1531 1531 1531 1531 1531 1531 1531 1530 1530 1530 1530 1530 1530 1530 1530 1530 1530 1530
1500 1506 1511 1504 1502 1503 1508 1515 1507 1507 1508 1509 1510 1512 1513 1515 1516 1517 1518 1520 1521 1522 1524 1525 1526 1527 1529 1529 1530 1530 1531 1531 1531 1531 1531 1531 1531 1531 1531 1531 1530 1531 1531 1531 1530 1530 1531 1530 1531
1507 1514 1513 1507 1501 1502 1506 1510 1505 1505 1506 1507 1509 1510 1512 1513 1515 1516 1517 1518 1520 1521 1523 1524 1525 1526 1528 1529 1530 1530 1531 1531 1531 1531 1531 1531 1531 1531 1531 1530 1530 1531 1531 1530 1530 1530 1530 1530 1531
1513 1513 1511 1509 1502 1501 1505 1506 1503 1503 1504 1505 1507 1508 1509 1511 1512 1514 1515 1517 1519 1520 1522 1523 1524 1525 1527 1528 1529 1530 1530 1531 1531 1531 1531 1531 1531 1531 1531 1530 1530 1530 1530 1530 1530 1530 1530 1530 1530
1503 1507 1510 1506 1499 1502 1504 1504 1502 1501 1502 1503 1504 1506 1507 1509 1510 1512 1514 1515 1517 1519 1520 1521 1523 1524 1526 1527 1528 1528 1529 1530 1530 1531 1531 1531 1531 1530 1530 1530 1530 1530 1530 1530 1529 1530 1530 1530 1530
1502 1507 1509 1504 1498 1500 1503 1503 1499 1498 1498 1499 1501 1503 1504 1507 1508 1510 1511 1513 1515 1517 1518 1520 1522 1523 1524 1526 1527 1528 1529 1529 1530 1530 1530 1530 1530 1530 1530 1530 1529 1529 1529 1529 1529 1529 1529 1529 1530
1502 1506 1507 1507 1501 1500 1504 1507 1502 1498 1497 1498 1499 1500 1501 1503 1505 1507 1509 1510 1512 1514 1516 1518 1520 1522 1523 1525 1526 1527 1528 1528 1529 1529 1529 1529 1529 1529 1529 1529 1529 1529 1529 1528 1528 1529 1529 1529 1529
1506 1498 1500 1502 1509 1514 1509 1522 1506 1499 1497 1496 1497 1498 1499 1501 1503 1505 1506 1508 1510 1512 1514 1516 1519 1520 1522 1523 1524 1525 1526 1526 1527 1527 1528 1528 1529 1529 1529 1528 1528 1528 1528 1528 1528 1528 1528 1528 1528
1498 1494 1497 1500 1507 1513 1511 1518 1511 1500 1500 1496 1494 1495 1496 1498 1500 1502 1504 1506 1508 1510 1513 1515 1517 1519 1520 1522 1523 1523 1524 1525 1526 1526 1527 1527 1528 1528 1528 1527 1527 1527 1527 1527 1527 1527 1527 1527 1527
1492 1497 1501 1507 1513 1523 1512 1516 1513 1502 1494 1491 1490 1492 1493 1496 1498 1500 1503 1505 1507 1509 1512 1513 1515 1517 1518 1520 1521 1522 1523 1523 1524 1525 1525 1526 1526 1526 1526 1526 1526 1526 1526 1526 1526 1526 1526 1526 1526
1496 1511 1526 1527 1531 1526 1508 1511 1507 1490 1486 1485 1487 1489 1491 1494 1496 1498 1500 1502 1505 1507 1509 1511 1513 1515 1516 1518 1519 1520 1521 1522 1522 1523 1523 1524 1524 1524 1525 1525 1525 1525 1525 1525 1525 1524 1524 1524 1524
1498 1508 1527 1534 1533 1524 1509 1510 1499 1485 1483 1483 1485 1487 1490 1492 1494 1496 1497 1500 1502 1504 1506 1508 1510 1512 1514 1515 1517 1518 1519 1520 1520 1521 1522 1522 1522 1523 1523 1523 1523 1523 1523 1523 1523 1523 1523 1523 1523
1498 1504 1505 1518 1519 1523 1516 1505 1493 1486 1486 1485 1486 1488 1489 1490 1492 1494 1495 1497 1499 1501 1503 1506 1507 1509 1511 1513 1515 1516 1517 1517 1518 1519 1520 1520 1521 1521 1521 1521 1521 1521 1521 1521 1521 1521 1521 1521 1521
1490 1496 1509 1516 1525 1530 1520 1511 1504 1493 1490 1488 1487 1487 1488 1490 1491 1492 1494 1495 1497 1499 1501 1503 1505 1507 1509 1511 1512 1513 1514 1515 1516 1517 1517 1518 1518 1519 1519 1519 1519 1519 1519 1519 1519 1519 1519 1519 1520
1493 1496 1503 1513 1517 1526 1528 1515 1489 1488 1486 1486 1486 1486 1487 1489 1490 1491 1492 1494 1495 1497 1499 1500 1502 1504 1506 1508 1509 1510 1511 1512 1513 1514 1514 1515 1516 1516 1516 1517 1517 1517 1517 1517 1517 1517 1517 1517 1517
1488 1492 1500 1513 1515 1516 1521 1512 1483 1483 1482 1483 1485 1486 1487 1488 1489 1490 1491 1492 1493 1495 1496 1498 1500 1501 1503 1505 1506 1507 1509 1510 1510 1511 1512 1512 1513 1513 1514 1514 1514 1514 1514 1515 1515 1514 1514 1514 1514